www.pogodaiklimat.ru

Погода и климат >> Архив погоды >> Великобритания >> Wick


ПОГОДА в Wick

  • Прогноз погоды в Wick
  • Монитор погоды в Wick
  • Климат города

АРХИВ ПОГОДЫ в Wick

Время (UTC), дата Ветер
(напр.,м/с)
 
Видим.   Явления Облачность Т
(С)
Тd
(С)
f
(%)
Тe
(С)
Тes
(С)
Комфортность P
(гПа)
Po
(гПа)
Тmin
(С)
Tmax
(С)
R
(мм)
R24
(мм)
S
(см)
10 11.12 СЗ 5 40 км н/о +1.7 +0.6 92 -4 -4 989.5 985.1 3
11 11.12 СЗ 6 40 км н/о +2.4 +1.4 93 -4 -4 990.5 986.1 3
12 11.12 СЗ 5 23 км н/о +1.5 0.0 90 -4 -4 991.3 986.9 3 3
13 11.12 СЗ 5 35 км н/о +2.5 +1.5 93 -3 -3 992.0 987.6 3
14 11.12 СЗ 5 30 км н/о +2.5 +1.7 94 -3 -3 992.6 988.2 3
15 11.12 СЗ 3 27 км н/о +1.5 +0.4 92 -3 -3 993.7 989.2 3
16 11.12 СЗ 4 45 км н/о +0.1 -1.2 91 -5 -5 994.6 990.1 3
17 11.12 З 3 26 км н/о +0.3 -0.5 94 -5 -5 995.3 990.9 3
18 11.12 ЮЗ 2 35 км н/о +0.7 -0.1 94 -2 -2 996.0 991.6 +3.3 3 3
19 11.12 З 4 35 км н/о 0.0 -0.7 95 -6 -6 996.7 992.2 3
20 11.12 З 3 40 км н/о -0.2 -0.6 97 -5 -5 997.4 992.9 3
21 11.12 З 4 50 км н/о 0.0 -0.6 96 -5 -5 997.6 993.1 3
22 11.12 СЗ 4 30 км н/о +0.7 -0.4 92 -4 -4 997.5 993.0 3
23 11.12 З 4 45 км н/о +0.5 -0.4 94 -5 -5 997.2 992.8 4
00 12.12 З 6 28 км н/о +0.7 -0.2 94 -6 -6 997.5 993.0 4
01 12.12 З 5 14 км в посл. час дождь н/о +2.2 +1.2 93 -4 -4 997.8 993.3 3
02 12.12 З 6 30 км осадки н/о +2.4 +1.6 94 -4 -4 998.1 993.7 3
03 12.12 СЗ 8 3400 м ливневой дождь н/о +2.6 +1.4 92 -4 -4 998.8 994.3 3
04 12.12 СЗ 7 8000 м слаб. ливневой дождь н/о +2.9 +1.8 92 -4 -4 998.4 994.0 3
05 12.12 З 4 30 км в посл. час дождь н/о +2.1 +1.4 95 -3 -3 998.6 994.2 3
06 12.12 З 4 30 км н/о +1.9 +1.2 95 -3 -3 998.8 994.3 -0.9 3 3
07 12.12 З 4 29 км в посл. час дождь н/о +2.0 +1.2 94 -3 -3 998.8 994.3 3
08 12.12 З 1 9000 м слаб. ливневой дождь н/о +2.4 +1.6 94 +1 +1 998.8 994.3 3
09 12.12 З 3 45 км в посл. час дождь н/о +1.2 -0.5 88 -3 -3 998.9 994.5 3
10 12.12 З 3 35 км н/о +1.0 -0.7 88 -4 -4 999.0 994.6 3
11 12.12 З 4 40 км н/о +0.9 -1.4 85 -4 -4 998.8 994.3 3
12 12.12 ЮЗ 2 30 км н/о +1.7 -1.4 80 -1 -1 998.2 993.7 1 3
13 12.12 ЮЗ 3 40 км н/о +3.2 -1.1 73 -1 -1 997.8 993.4 3
14 12.12 Ю 3 29 км н/о +2.8 -0.8 77 -1 -1 996.8 992.3 3
15 12.12 Ю 4 30 км н/о +3.0 +1.3 89 -2 -2 995.7 991.3 3
16 12.12 Ю 4 50 км н/о +2.8 +1.5 91 -2 -2 994.8 990.4 3
17 12.12 Ю 6 40 км н/о +3.7 +1.7 87 -2 -2 993.9 989.5 3
18 12.12 Ю 5 30 км н/о +4.4 +1.4 81 -1 -1 992.8 988.4 +4.6 2 3
19 12.12 Ю 6 40 км н/о +4.4 +1.5 81 -1 -1 991.8 987.4 3
20 12.12 Ю 6 40 км н/о +4.4 +1.5 81 -1 -1 991.8 987.4 3
21 12.12 Ю 7 4000 м ливневой дождь н/о +2.6 +1.5 92 -4 -4 990.0 985.6 3
22 12.12 Ю 7 45 км слаб. дождь н/о +3.0 +2.0 93 -3 -3 988.9 984.5 2
23 12.12 Ю 4 40 км слаб. ливневой дождь н/о +3.3 +2.0 91 -2 -2 988.3 983.9 2
00 13.12 ЮЗ 5 50 км в посл. час дождь н/о +2.6 +1.1 90 -3 -3 987.9 983.5 4 2
01 13.12 ЮЗ 5 45 км н/о +2.2 +0.8 90 -3 -3 987.5 983.1 2
02 13.12 ЮЗ 6 40 км н/о +2.6 +0.7 87 -3 -3 987.0 982.6 2
03 13.12 ЮЗ 5 45 км н/о +2.6 +0.2 84 -3 -3 986.4 982.1 2
04 13.12 ЮЗ 6 35 км н/о +2.7 +0.3 84 -3 -3 985.7 981.3 2
05 13.12 ЮЗ 6 30 км н/о +3.3 +0.8 84 -2 -2 984.7 980.3 2
06 13.12 Ю 4 35 км н/о +3.4 +1.0 84 -1 -1 983.4 979.0 +1.9 4 2
07 13.12 Ю 5 30 км н/о +4.4 +2.1 85 -0 -0 981.9 977.6 2
08 13.12 Ю 6 13 км слаб. ливневой дождь н/о +3.8 +1.8 87 -2 -2 980.9 976.6 2
09 13.12 Ю 8 40 км в посл. час дождь н/о +3.6 +2.1 90 -3 -3 979.7 975.3 2
10 13.12 Ю 5 45 км н/о +3.2 +2.0 92 -2 -2 978.9 974.6 2
11 13.12 ЮЗ 8 45 км н/о +2.6 +1.1 90 -4 -4 978.6 974.3 1
12 13.12 ЮЗ 6 45 км н/о +2.3 +1.0 91 -4 -4 978.0 973.7 0.2 1
13 13.12 ЮЗ 5 45 км н/о +2.4 +0.4 87 -3 -3 977.6 973.3 1
14 13.12 З 7 45 км н/о +2.1 +0.3 88 -5 -5 977.2 972.9 1
15 13.12 ЮЗ 5 45 км н/о +1.2 -0.4 89 -5 -5 977.0 972.7 1
16 13.12 ЮЗ 4 50 км н/о +1.0 -0.4 90 -4 -4 977.1 972.8 1
17 13.12 ЮЗ 5 50 км н/о +0.9 -0.5 90 -5 -5 977.2 972.8 1
18 13.12 ЮЗ 5 40 км н/о +0.6 -1.2 88 -5 -5 977.0 972.6 +4.5 0.2 1
19 13.12 ЮЗ 6 50 км н/о +0.6 -1.6 85 -6 -6 976.8 972.4 1
20 13.12 ЮЗ 6 50 км н/о +0.8 -1.4 85 -6 -6 976.7 972.3 1
21 13.12 З 5 50 км н/о -0.1 -1.6 90 -6 -6 976.9 972.6 1
22 13.12 З 6 4100 м осадки н/о -0.5 -1.4 94 -8 -8 976.9 972.5 1
23 13.12 ЮЗ 5 50 км в посл. час снег н/о -1.0 -1.7 95 -7 -7 976.7 972.3 1
00 14.12 З 5 50 км н/о +0.4 -0.5 94 -6 -6 976.7 972.4 0.0 1
01 14.12 ЮЗ 5 50 км н/о +0.2 -1.0 92 -6 -6 976.4 972.1 1
02 14.12 З 6 50 км н/о +0.4 -0.8 92 -6 -6 976.4 972.0 1
03 14.12 ЮЗ 6 50 км н/о +0.6 -0.9 90 -6 -6 976.4 972.0 1
04 14.12 ЮЗ 5 50 км н/о 0.0 -1.6 89 -6 -6 976.1 971.7 1
05 14.12 З 5 50 км н/о 0.0 -1.7 88 -6 -6 976.2 971.8 1
06 14.12 ЮЗ 4 50 км н/о -0.2 -1.6 90 -6 -6 976.1 971.7 -1.2 0.0 1
07 14.12 ЮЗ 4 50 км н/о -0.1 -1.9 88 -6 -6 976.3 971.9 1
08 14.12 ЮЗ 5 50 км н/о +0.8 -1.0 88 -5 -5 976.2 971.9 1
09 14.12 ЮЗ 5 50 км н/о +1.0 -0.5 90 -5 -5 976.3 971.9 1
10 14.12 ЮЗ 5 40 км н/о +1.4 -0.7 86 -4 -4 976.4 972.0 1
11 14.12 ЮЗ 5 50 км н/о +2.3 -0.4 82 -3 -3 976.6 972.3 1
12 14.12 Ю 6 45 км н/о +3.0 +0.3 82 -3 -3 976.7 972.3 1
13 14.12 ЮЗ 5 45 км н/о +2.9 +0.6 85 -2 -2 976.9 972.6 1
14 14.12 Ю 3 40 км н/о +2.6 +0.8 88 -2 -2 977.2 972.9 1
15 14.12 Ю 3 45 км н/о +2.9 +1.1 88 -1 -1 978.4 974.0 1
16 14.12 ЮВ 1 40 км н/о +3.2 +1.7 90 +2 +2 979.5 975.2 1
17 14.12 штиль 0 35 км н/о +3.4 +2.0 91 +2 +2 981.2 976.8 1
18 14.12 С 2 40 км н/о +2.4 +1.4 93 -1 -1 983.0 978.7 +3.6 1
19 14.12 СВ 5 45 км н/о +3.3 +1.5 88 -2 -2 984.7 980.4 1
20 14.12 СВ 3 40 км в посл. час дождь н/о +3.4 +1.7 89 -1 -1 986.1 981.7 1
21 14.12 СЗ 3 50 км н/о +1.6 +0.5 92 -2 -2 987.3 982.9 1
22 14.12 СЗ 5 30 км н/о +2.8 +1.7 92 -2 -2 988.4 984.0 1
23 14.12 С 7 6000 м ливневой дождь н/о +3.8 +3.4 97 -2 -2 989.7 985.3 1
00 15.12 С 11
{15}
4100 м слаб. морось н/о +5.1 +4.1 93 -2 -2 990.9 986.6 2 1
01 15.12 С 12
{19}
15 км в посл. час дождь н/о +5.9 +3.5 85 -1 -1 992.5 988.2
02 15.12 С 9
{17}
15 км н/о +5.7 +3.7 87 -0 -0 994.4 990.1
03 15.12 С 12
{16}
17 км в посл. час дождь н/о +5.4 +2.0 79 -1 -1 996.1 991.7
04 15.12 С 10
{18}
20 км н/о +4.8 +1.8 81 -2 -2 997.4 993.0
05 15.12 С 8
{14}
30 км н/о +4.2 +1.7 84 -2 -2 998.9 994.5
06 15.12 СЗ 6 9000 м дым н/о +2.4 +1.0 90 -3 -3 999.8 995.3 +1.3 2
07 15.12 СЗ 5 12 км н/о +2.3 +0.7 89 -3 -3 1001.0 996.6
08 15.12 СЗ 5 20 км н/о +2.2 +0.4 88 -3 -3 1001.9 997.4
09 15.12 СЗ 5 45 км в посл. час дождь н/о +1.4 +0.2 92 -4 -4 1002.7 998.2
10 15.12 СЗ 5 28 км н/о +1.7 +0.5 92 -4 -4 1003.5 999.1
11 15.12 С 6 30 км в посл. час дождь н/о +3.6 +2.2 91 -2 -2 1004.2 999.8
12 15.12 С 6
{14}
45 км в посл. час дождь н/о +3.5 +2.0 90 -2 -2 1004.6 1000.1 0.2
13 15.12 З 3 30 км н/о +2.7 +1.7 93 -2 -2 1005.3 1000.8
14 15.12 СЗ 7
{15}
29 км в посл. час дождь н/о +2.6 +1.5 92 -4 -4 1005.5 1001.0
15 15.12 СЗ 7 18 км в посл. час дождь н/о +2.1 +1.0 92 -4 -4 1006.1 1001.7
16 15.12 СЗ 6 14 км в посл. час дождь н/о +2.3 +1.0 91 -4 -4 1006.8 1002.3
17 15.12 СЗ 8-14
{14}
2800 м осадки н/о +1.1 +0.4 95 -6 -6 1007.7 1003.2
18 15.12 СЗ 4 22 км в посл. час снег н/о +1.2 +1.0 99 -4 -4 1007.9 1003.4 +4.3 3
19 15.12 СЗ 7 18 км слаб. ливневой дождь н/о +0.9 +0.5 97 -6 -6 1008.5 1004.0
20 15.12 СЗ 6 40 км в посл. час дождь н/о +1.8 +0.6 92 -5 -5 1008.8 1004.3
21 15.12 С 7 3300 м ливневой дождь н/о +1.8 +0.9 94 -5 -5 1009.4 1004.9
22 15.12 СЗ 5 50 км в посл. час дождь н/о +1.4 -0.1 90 -4 -4 1009.3 1004.8
23 15.12 СЗ 6 35 км в посл. час дождь н/о +1.4 +0.6 94 -5 -5 1009.6 1005.1
00 16.12 З 4 35 км н/о +0.8 -0.1 94 -5 -5 1010.1 1005.6 2
01 16.12 З 3 45 км в посл. час снег н/о +1.0 +0.2 94 -4 -4 1010.3 1005.7
02 16.12 СЗ 3 30 км в посл. час дождь н/о +0.9 +0.2 95 -4 -4 1010.3 1005.8
03 16.12 З 5 40 км в посл. час осадки н/о +1.5 +0.1 90 -4 -4 1010.4 1005.9
04 16.12 СЗ 6 50 км н/о +1.0 -0.3 91 -5 -5 1010.7 1006.2
05 16.12 СЗ 7-13
{13}
2800 м осадки н/о +1.0 +0.1 94 -6 -6 1011.2 1006.7
06 16.12 СЗ 5
{13}
50 км в посл. час дождь н/о +1.2 +0.1 92 -5 -5 1011.2 1006.7 +0.5 2
07 16.12 СЗ 8 3700 м осадки н/о +1.2 +0.6 96 -6 -6 1011.9 1007.3
08 16.12 З 4 50 км в посл. час осадки н/о +0.4 -0.5 94 -5 -5 1012.1 1007.6
09 16.12 З 4 40 км н/о +0.6 -0.6 92 -5 -5 1012.8 1008.3
10 16.12 СЗ 5 35 км в посл. час дождь н/о +1.7 +0.4 91 -4 -4 1013.4 1008.9
11 16.12 СЗ 3 50 км н/о +1.1 +0.1 93 -4 -4 1014.0 1009.5
12 16.12 СЗ 3 50 км в посл. час осадки н/о +2.0 +1.4 96 -3 -3 1014.6 1010.1 0.2
13 16.12 С 3 45 км в посл. час дождь н/о +2.3 +1.3 93 -2 -2 1014.9 1010.4
14 16.12 З 3 45 км н/о +1.5 +0.8 95 -3 -3 1015.6 1011.0
15 16.12 З 3 45 км н/о +0.7 +0.1 96 -4 -4 1015.9 1011.4
16 16.12 З 3 45 км н/о +0.1 -0.5 96 -4 -4 1016.5 1011.9
17 16.12 З 2 50 км в посл. час осадки н/о +0.1 -0.6 95 -4 -4 1016.7 1012.2
18 16.12 ЮЗ 2 45 км н/о +0.4 -0.4 94 -3 -3 1017.3 1012.7 +2.4 0.4
19 16.12 З 4 50 км н/о +0.8 -0.1 94 -5 -5 1017.4 1012.9
20 16.12 ЮЗ 3 50 км н/о +0.6 -0.3 94 -4 -4 1017.4 1012.9
21 16.12 Ю 2 50 км н/о +1.4 -0.3 88 -2 -2 1017.1 1012.6
22 16.12 Ю 2 50 км н/о +1.0 -0.9 87 -3 -3 1016.9 1012.3
23 16.12 ЮЗ 4 50 км н/о +1.9 +0.2 88 -3 -3 1016.5 1011.9
00 17.12 Ю 4 50 км н/о +2.2 +0.6 89 -3 -3 1015.9 1011.4
01 17.12 Ю 3 50 км н/о +2.2 +0.1 86 -2 -2 1015.3 1010.8
02 17.12 Ю 6 50 км н/о +3.1 +1.8 91 -3 -3 1014.2 1009.7
03 17.12 Ю 7 50 км н/о +3.3 +1.6 89 -3 -3 1013.1 1008.7
04 17.12 Ю 6 40 км в посл. час дождь н/о +3.7 +2.6 93 -2 -2 1011.9 1007.4
05 17.12 Ю 7 27 км слаб. дождь н/о +4.2 +3.2 93 -2 -2 1010.2 1005.7
06 17.12 Ю 7 20 км слаб. ливневой дождь н/о +4.9 +4.1 95 -1 -1 1008.7 1004.2 0.0 0.4
07 17.12 Ю 7 13 км слаб. дождь н/о +5.3 +4.3 93 -0 -0 1007.1 1002.6
08 17.12 Ю 9
{15}
9000 м дождь н/о +5.7 +5.3 97 -0 -0 1005.9 1001.5
09 17.12 Ю 9
{13}
9000 м дождь н/о +5.7 +5.3 97 -0 -0 1005.0 1000.6
10 17.12 Ю 9
{13}
15 км слаб. дождь н/о +5.8 +5.3 97 -0 -0 1003.9 999.5
11 17.12 ЮЗ 9
{13}
30 км в посл. час дождь н/о +5.9 +5.4 97 -0 -0 1003.3 998.9
12 17.12 З 12-18
{18}
13 км в посл. час дождь н/о +7.0 +6.7 98 +1 +1 1003.8 999.4 8
13 17.12 СЗ 11
{20}
10 км в посл. час дождь н/о +6.8 +5.0 88 +1 +1 1004.9 1000.5
14 17.12 З 12
{16}
14 км н/о +6.3 +3.5 82 -0 -0 1006.4 1002.0
15 17.12 З 10
{15}
14 км н/о +5.8 +3.7 86 -0 -0 1007.8 1003.4
16 17.12 З 7
{14}
15 км н/о +5.5 +3.5 87 0 0 1009.4 1005.0
17 17.12 З 7 19 км н/о +4.8 +2.9 87 -1 -1 1010.7 1006.2
18 17.12 СЗ 10-17
{17}
18 км в посл. час дождь н/о +5.5 +3.8 89 -1 -1 1011.9 1007.4 +7.0 8
19 17.12 З 7
{14}
35 км в посл. час дождь н/о +4.7 +2.8 87 -1 -1 1013.0 1008.5
20 17.12 З 4 14 км н/о +3.7 +2.3 91 -1 -1 1014.6 1010.1
21 17.12 З 6 23 км н/о +4.3 +2.8 90 -1 -1 1015.2 1010.7
22 17.12 З 4 25 км н/о +2.9 +1.9 93 -2 -2 1016.2 1011.7
23 17.12 З 5 25 км н/о +2.8 +2.0 94 -3 -3 1016.8 1012.3
00 18.12 З 4 27 км н/о +2.3 +1.5 94 -3 -3 1017.7 1013.2 0.0
01 18.12 З 5 21 км н/о +2.6 +1.6 93 -3 -3 1018.4 1013.8
02 18.12 З 4 22 км в посл. час осадки н/о +2.7 +1.9 94 -2 -2 1019.4 1014.9
03 18.12 З 3 23 км н/о +2.2 +1.1 92 -2 -2 1020.3 1015.7
04 18.12 ЮЗ 3 24 км н/о +3.4 +1.9 90 -1 -1 1020.9 1016.4
05 18.12 ЮЗ 4 28 км н/о +3.9 +2.4 90 -0 -0 1021.6 1017.0
06 18.12 ЮЗ 4 30 км н/о +3.2 +1.8 91 -2 -2 1022.1 1017.5 +1.9 0.0
07 18.12 ЮЗ 3 29 км н/о +3.9 +1.9 87 0 0 1022.2 1017.7
08 18.12 Ю 3 25 км н/о +4.1 +2.0 86 0 0 1022.2 1017.7
09 18.12 ЮЗ 3 26 км н/о +4.2 +2.5 89 0 0 1022.6 1018.1

 

Местоположение метеостанции Wick (Великобритания): широта 58.45 долгота -3.08 высота над уровнем моря 36 м.

В архиве по умолчанию представлена погода в Wick за последнюю неделю. Архивные данные за месяц целиком и за предыдущие месяцы, начиная с января 2011 года, Вы можете получить, выбрав интересующий диапазон дат из раскрывающегося списка и нажав кнопку "Ввод!".

Внимание! Время в таблицах - всемирное. Для получения местного времени необходимо прибавить поправку, которая в Wick равна 0 ч.

Смотрите также архив погоды в соседних городах и на ближайших метеорологических станциях:

Погода в Kirkwall (Великобритания) (57 км)
Погода в Altnaharra (Великобритания) (81 км)
Погода в Lossiemouth (Великобритания) (82 км)
Погода в Tain Range (Великобритания) (87 км)
Погода в Kinloss (Великобритания) (94 км)
Погода в Sule Skerry (Великобритания) (103 км)
Погода в Loch Glascarnoch (Великобритания) (133 км)
Погода в Aviemore (Великобритания) (146 км)
Погода в Fair Isle (Великобритания) (146 км)
Погода в Aberdeen (Великобритания) (148 км)

Пояснения к столбцам:

Ветер - указаны скорость ветра в м/с - средняя за 10 мин, порывы в срок и между сроками (в фигурных скобках) и направление, откуда дует ветер: С - северный, СВ - северо-восточный, В - восточный, ЮВ - юго-восточный, Ю - южный, ЮЗ - юго-западный, З - западный, СЗ - северо-западный.
Видимость - горизонтальная дальность видимости в метрах или километрах. При видимости от 1 до 10 км при отсутствии осадков обычно наблюдается дымка, при ухудшении видимости до 1 км и менее - туман. В сухую погоду видимость может ухудшаться дымом, пылью или мглою.
Явления - указаны атмосферные явления, наблюдавшиеся в срок или в последний час перед сроком; фигурными скобками обозначены явления, наблюдавшиеся между сроками (за 1-3 часа до срока); квадратными скобками обозначены град или гололедные отложения с указанием их диаметра в мм.
Облачность - указаны через наклонную черту общая и нижняя облачность в баллах и высота нижней границы облаков в метрах; квадратными скобками обозначены формы облаков: Ci - перистые, Cs - перисто-слоистые, Cc - перисто-кучевые, Ac - высококучевые, As - высокослоистые, Sc - слоисто-кучевые, Ns - слоисто-дождевые, Cu - кучевые, Cb - кучево-дождевые. Подробнее классификацию облаков см. в Атласе облаков (PDF).
T - Температура воздуха - температура, измеренная на высоте 2 м над землей.
Td - Температура точки росы - температура, при понижении до которой содержащийся в воздухе водяной пар достигнет насыщения.
f - Относительная влажность воздуха - влажноcть воздуха, измеренная на высоте 2 м над землей.
Te - Эффективная температура - температура, которую ощущает одетый по сезону человек в тени. Характеристика душности погоды. При расчете учитывается влияние влажности воздуха и скорости ветра на теплоощущения человека.
Tes - Эффективная температура на солнце - температура, которую ощущает человек, с поправкой на солнечный нагрев. Характеристика знойности погоды. Зависит от высоты солнца над горизонтом, облачности и скорости ветра. Ночью, в пасмурную погоду, а также при ветре 12 м/с и более поправка равна нулю.
P - Атмосферное давление - приведенное к уровню моря атмосферное давление.
Po - Атмосферное давление - измеренное на уровне метеостанции атмосферное давление.
Tmin - Минимальная температура - минимум температуры воздуха на высоте 2 м над землей.
Tmax - Максимальная температура - максимум температуры воздуха на высоте 2 м над землей.
R - Количество осадков - Количество выпавших осадков за период времени, мм. При наведении курсора мыши на число - период времени, за который выпало указанное количество осадков.
R24 - Количество осадков - Количество выпавших осадков за 24 часа, мм.
S - Снежный покров - Высота снежного покрова, см. При наведении курсора мыши на число - состояние снежного покрова и степень покрытия местности в баллах.